Location: Finney State Fishing Lake and Wildlife Area
(38.1834°N, 100.3310°W)
Time: 17:44:05
(UTC+00:00)

BlueWalker 3 - Pass Details

Date: 08 December 2022
Orbit: 499 x 517 km, 53.2° (Epoch: 29 January)

Event Time Altitude Azimuth Distance (km) Brightness Sun altitude
Rises 23:59:41 0° 320° (NW) 2,629 5.8 -7.7°
Reaches altitude 10° 00:02:59 10° 349° (N) 1,735 4.6 -8.3°
Maximum altitude 00:04:52 13° 18° (NNE) 1,550 4.0 -8.6°
Enters shadow 00:06:42 10° 46° (NE) 1,721 4.1 -8.9°
